sat.trackr.live / text

‹ back to catalog

STARLINK-2587

NORAD 48399 · 2021-038AY

PAYLOAD ACTIVE UNKNOWN

§ Identity

Operator
Country
US
Launch date
2021-05-04
Launch site
AFETR
Launch vehicle
Mass (kg)
RCS (m²)

Purposes: comms

External: N2YO · Heavens-Above · Gunter

§ Orbital elements

Epoch: 2026-05-24T22:28:52.963968Z

Period
94.01 min
Inclination
53.1608°
Eccentricity
0.0001236
Mean motion
15.31707143 rev/d
Perigee alt
469.9 km
Apogee alt
471.6 km
Semi-major
6,848.9 km
B*
8.1491e-5
RAAN
337.9469°
Arg perigee
78.9600°
Mean anomaly
281.1540°
Rev number
28,033

§ Raw data

STARLINK-25871 48399U 21038AY  26144.93672412  .00002165  00000+0  81491-4 0  99982 48399  53.1608 337.9469 0001236  78.9600 281.1540 15.31707143280330

JSON: /api/v1/satellites/48399 · /tle

For live sub-satellite position, see the globe view (requires WebGL).

§ Visibility from observer

Set your observer location to see the next 7 days of passes ≥ 10°. The values pass through the URL so the page stays shareable.

No JS? Fill the form by hand. The geolocation button needs JavaScript.